Location: Marse
(42.1502°N, 110.9866°W)
Time: 08:32:15
(UTC+00:00)

YUBILEINY - Visible Passes

Search period start: 25 June 2022 00:00
Search period end: 05 July 2022 00:00
Orbit: 1479 x 1507 km, 82.5° (Epoch: 24 June)

Date Brightness Start Highest point End Pass type
(mag) Time Alt. Az. Time Alt. Az. Time Alt. Az.
25 Jun ? 10:50:26 10° NNE 10:57:27 25° ENE 11:04:22 10° ESE visible
26 Jun ? 03:50:45 10° W 03:54:42 13° NW 03:58:40 10° NNW visible
26 Jun ? 10:02:42 10° NNE 10:06:44 14° NE 10:10:43 10° E visible
27 Jun ? 11:07:29 10° N 11:15:33 38° ENE 11:23:31 10° SE visible
28 Jun ? 10:18:49 10° NNE 10:25:11 21° ENE 10:31:28 10° ESE visible
29 Jun ? 09:32:13 10° NE 09:34:19 11° NE 09:36:24 10° ENE visible
30 Jun ? 10:35:42 10° N 10:43:23 32° ENE 10:50:58 10° SE visible
01 Jul ? 09:47:19 10° NNE 09:52:53 18° ENE 09:58:22 10° E visible
02 Jul ? 10:52:55 10° N 11:01:22 48° ENE 11:09:42 10° SSE visible
03 Jul ? 10:03:59 10° N 10:11:10 27° ENE 10:18:16 10° ESE visible
04 Jul ? 09:16:01 10° NNE 09:20:31 15° ENE 09:24:58 10° E visible
04 Jul ? 11:10:21 10° N 11:19:10 70° E 11:27:52 10° SSE visible
